Terug naar catalogus

STARLINK-3507

ActiefCommunicatieVLEO
NORAD 51753·PAYLOAD·🇺🇸 United States

Gelanceerd Feb 21, 2022 vanaf Cape Canaveral Space Force Station

Loading…

Volgende Passages (komende 24 uur)

TLE

VersSource: CelesTrak SupGP

Epoch: Sep 14, 2026, 21:52 UTC

1 51753C 22016AR  26257.91159722 -.00030981  00000+0 -94022-3 0  2579
2 51753  53.1571 165.9818 0001292  93.7762 269.7566 15.33560030    19

Volg STARLINK-3507 in realtime met AllMySat

Download on the App Store